Location: Borgo
(42.3939°N, 9.2791°E)
Time: 01:47:16
(UTC+00:00)

SJ 16-02 - Pass Details

Date: 24 January 2021
Orbit: 606 x 616 km, 75.0° (Epoch: 08 March)

Event Time Altitude Azimuth Distance (km) Brightness Sun altitude
Rises 18:08:46 0° 229° (SW) 2,865 5.8 -18.8°
Reaches altitude 10° 18:11:21 10° 243° (WSW) 1,963 5.0 -19.2°
Maximum altitude 18:14:55 24° 298° (WNW) 1,275 3.5 -19.9°
Drops below altitude 10° 18:18:30 10° 353° (N) 1,970 3.9 -20.6°
Enters shadow 18:20:35 - 5° (N) 2,687 4.5 -20.9°
